| time (UTC) | temp F | wind direction | speed knots | gust knots | rain 1hr in | rain 24hr in | rain mn in | humidity % | barometer mb |
| 20260507214512 | 68 | 42 | 0.0 | 3.5 | 0.00 | 0.00 | 0.00 | 52 | 1018.9 |
| 20260507213017 | 68 | 63 | 1.7 | 3.5 | 0.00 | 0.00 | 0.00 | 53 | 1019.2 |
| 20260507211522 | 68 | 168 | 0.9 | 4.3 | 0.00 | 0.00 | 0.00 | 55 | 1019.3 |
| 20260507210022 | 66 | 209 | 1.7 | 4.3 | 0.00 | 0.00 | 0.00 | 57 | 1019.4 |
| 20260507204521 | 66 | 110 | 0.9 | 3.5 | 0.00 | 0.00 | 0.00 | 55 | 1019.6 |
| 20260507203016 | 65 | 190 | 0.9 | 4.3 | 0.00 | 0.00 | 0.00 | 56 | 1019.8 |
| 20260507201522 | 65 | 32 | 0.9 | 3.5 | 0.00 | 0.00 | 0.00 | 56 | 1020.1 |
| 20260507200022 | 64 | 65 | 1.7 | 5.2 | 0.00 | 0.00 | 0.00 | 58 | 1020.2 |
| 20260507194522 | 64 | 184 | 3.5 | 6.1 | 0.00 | 0.00 | 0.00 | 56 | 1020.3 |
| 20260507193028 | 64 | 53 | 0.9 | 5.2 | 0.00 | 0.00 | 0.00 | 58 | 1020.5 |
| 20260507191521 | 63 | 86 | 1.7 | 5.2 | 0.00 | 0.00 | 0.00 | 62 | 1020.7 |
| 20260507190021 | 62 | 120 | 0.9 | 7.0 | 0.00 | 0.00 | 0.00 | 59 | 1020.8 |
| 20260507184524 | 61 | 225 | 1.7 | 4.3 | 0.00 | 0.00 | 0.00 | 62 | 1020.9 |
| 20260507183026 | 60 | 344 | 1.7 | 4.3 | 0.00 | 0.00 | 0.00 | 63 | 1021.0 |
| 20260507181525 | 59 | 333 | 0.9 | 3.5 | 0.00 | 0.00 | 0.00 | 64 | 1021.1 |
| 20260507180024 | 59 | 338 | 0.9 | 2.6 | 0.00 | 0.00 | 0.00 | 65 | 1021.3 |
| 20260507174537 | 59 | 209 | 0.9 | 1.7 | 0.00 | 0.00 | 0.00 | 66 | 1021.5 |
| 20260507173030 | 57 | 54 | 0.9 | 3.5 | 0.00 | 0.00 | 0.00 | 72 | 1021.6 |
| 20260507171525 | 56 | 101 | 0.9 | 4.3 | 0.00 | 0.00 | 0.00 | 72 | 1021.6 |
| 20260507170036 | 56 | 337 | 0.9 | 6.1 | 0.00 | 0.00 | 0.00 | 73 | 1021.6 |
| 20260507164522 | 55 | 319 | 1.7 | 5.2 | 0.00 | 0.00 | 0.00 | 73 | 1021.7 |
| 20260507163026 | 55 | 352 | 1.7 | 5.2 | 0.00 | 0.00 | 0.00 | 1021.8 | |
| 20260507161526 | 54 | 5 | 2.6 | 7.0 | 0.00 | 0.00 | 0.00 | 1021.7 | |
| 20260507160026 | 54 | 293 | 0.9 | 5.2 | 0.00 | 0.00 | 0.00 | 73 | 1021.7 |
| 20260507154523 | 54 | 317 | 1.7 | 7.0 | 0.00 | 0.00 | 0.00 | 73 | 1021.7 |
| 20260507153025 | 54 | 286 | 1.7 | 5.2 | 0.00 | 0.00 | 0.00 | 74 | 1021.7 |
| 20260507151526 | 53 | 332 | 0.9 | 3.5 | 0.00 | 0.00 | 0.00 | 76 | 1021.8 |
| 20260507150016 | 53 | 287 | 1.7 | 5.2 | 0.00 | 0.00 | 0.00 | 75 | 1021.8 |
| 20260507144520 | 53 | 334 | 1.7 | 3.5 | 0.00 | 0.00 | 0.00 | 75 | 1021.8 |
| 20260507143028 | 53 | 323 | 0.0 | 2.6 | 0.00 | 0.00 | 0.00 | 77 | 1021.7 |
| 20260507141525 | 52 | 298 | 0.9 | 1.7 | 0.00 | 0.00 | 0.00 | 77 | 1021.7 |
| 20260507140030 | 52 | 309 | 0.9 | 1.7 | 0.00 | 0.00 | 0.00 | 78 | 1021.6 |
| 20260507134520 | 52 | 327 | 0.0 | 1.7 | 0.00 | 0.00 | 0.00 | 78 | 1021.5 |
| 20260507133023 | 52 | 328 | 0.0 | 1.7 | 0.00 | 0.00 | 0.00 | 78 | 1021.2 |
| 20260507131535 | 52 | 331 | 0.0 | 1.7 | 0.00 | 0.00 | 0.00 | 77 | 1021.3 |
| 20260507130025 | 52 | 304 | 0.9 | 1.7 | 0.00 | 0.00 | 0.00 | 77 | 1021.3 |
| 20260507124521 | 53 | 301 | 0.0 | 1.7 | 0.00 | 0.00 | 0.00 | 78 | 1021.3 |
| 20260507123024 | 53 | 277 | 0.0 | 1.7 | 0.00 | 0.00 | 0.00 | 79 | 1021.4 |
| 20260507121526 | 53 | 281 | 0.0 | 1.7 | 0.00 | 0.00 | 0.00 | 79 | 1021.4 |
| 20260507120023 | 53 | 286 | 0.0 | 1.7 | 0.00 | 0.00 | 0.00 | 79 | 1021.6 |
| 20260507114515 | 53 | 279 | 0.0 | 1.7 | 0.00 | 0.00 | 0.00 | 78 | 1021.7 |
| 20260507113024 | 53 | 278 | 0.0 | 1.7 | 0.00 | 0.00 | 0.00 | 79 | 1021.7 |
| 20260507111507 | 53 | 284 | 0.0 | 1.7 | 0.00 | 0.00 | 0.00 | 79 | 1021.8 |
| 20260507110008 | 53 | 286 | 0.0 | 1.7 | 0.00 | 0.00 | 0.00 | 79 | 1021.9 |
| 20260507104516 | 53 | 294 | 0.0 | 1.7 | 0.00 | 0.00 | 0.00 | 79 | 1021.9 |
| 20260507103019 | 53 | 286 | 0.0 | 1.7 | 0.00 | 0.00 | 0.00 | 79 | 1022.0 |
| 20260507101524 | 54 | 315 | 0.0 | 1.7 | 0.00 | 0.00 | 0.00 | 79 | 1022.0 |
| 20260507100008 | 54 | 289 | 0.0 | 1.7 | 0.00 | 0.00 | 0.00 | 78 | 1022.1 |
| 20260507094512 | 54 | 279 | 0.9 | 1.7 | 0.00 | 0.00 | 0.00 | 78 | 1022.2 |
| 20260507093018 | 54 | 281 | 0.0 | 1.7 | 0.00 | 0.00 | 0.00 | 79 | 1022.2 |
| 20260507091524 | 54 | 286 | 0.0 | 1.7 | 0.00 | 0.00 | 0.00 | 78 | 1022.4 |
| 20260507090026 | 54 | 281 | 0.9 | 1.7 | 0.00 | 0.00 | 0.00 | 79 | 1022.5 |
| 20260507084513 | 54 | 331 | 0.9 | 1.7 | 0.00 | 0.00 | 0.00 | 78 | 1022.5 |
| 20260507083016 | 54 | 337 | 0.9 | 1.7 | 0.00 | 0.00 | 0.00 | 78 | 1022.5 |
| 20260507081534 | 54 | 275 | 0.0 | 2.6 | 0.00 | 0.00 | 0.00 | 78 | 1022.4 |
| 20260507080022 | 55 | 349 | 1.7 | 5.2 | 0.00 | 0.00 | 0.00 | 78 | 1022.4 |
| 20260507074544 | 55 | 360 | 1.7 | 4.3 | 0.00 | 0.00 | 0.00 | 77 | 1022.4 |
| 20260507073014 | 55 | 5 | 1.7 | 4.3 | 0.00 | 0.00 | 0.00 | 78 | 1022.3 |
| 20260507071520 | 55 | 350 | 1.7 | 3.5 | 0.00 | 0.00 | 0.00 | 79 | 1022.3 |
| 20260507070024 | 54 | 18 | 0.0 | 1.7 | 0.00 | 0.00 | 0.00 | 82 | 1022.3 |
| 20260507064524 | 54 | 109 | 0.0 | 1.7 | 0.00 | 0.00 | 0.00 | 84 | 1022.2 |
| 20260507063019 | 54 | 61 | 0.0 | 1.7 | 0.00 | 0.00 | 0.00 | 84 | 1022.2 |
| 20260507061518 | 54 | 104 | 0.9 | 1.7 | 0.00 | 0.00 | 0.00 | 83 | 1022.2 |
| 20260507060020 | 54 | 120 | 0.0 | 2.6 | 0.00 | 0.00 | 0.00 | 83 | 1022.2 |
| 20260507054526 | 54 | 105 | 0.0 | 1.7 | 0.00 | 0.00 | 0.00 | 82 | 1022.1 |
| 20260507053027 | 55 | 121 | 0.9 | 3.5 | 0.00 | 0.00 | 0.00 | 81 | 1022.0 |
| 20260507051512 | 55 | 317 | 0.0 | 1.7 | 0.00 | 0.00 | 0.00 | 83 | 1022.0 |
| 20260507050025 | 55 | 290 | 0.0 | 1.7 | 0.00 | 0.00 | 0.00 | 83 | 1022.0 |
| 20260507044523 | 54 | 290 | 0.0 | 0.9 | 0.00 | 0.00 | 0.00 | 82 | 1022.0 |
| 20260507043024 | 54 | 294 | 0.0 | 1.7 | 0.00 | 0.00 | 0.00 | 81 | 1021.8 |
| 20260507041526 | 55 | 138 | 0.0 | 1.7 | 0.00 | 0.00 | 0.00 | 80 | 1021.8 |
| 20260507040016 | 55 | 44 | 0.0 | 1.7 | 0.00 | 0.00 | 0.00 | 79 | 1021.5 |
| 20260507034520 | 56 | 26 | 0.9 | 1.7 | 0.00 | 0.00 | 0.00 | 78 | 1021.2 |
| 20260507033025 | 58 | 67 | 0.0 | 1.7 | 0.00 | 0.00 | 0.00 | 75 | 1021.0 |
| 20260507031527 | 59 | 110 | 0.0 | 1.7 | 0.00 | 0.00 | 0.00 | 73 | 1020.9 |
| 20260507030026 | 60 | 109 | 0.9 | 2.6 | 0.00 | 0.00 | 0.00 | 71 | 1020.9 |
| 20260507024516 | 62 | 134 | 0.0 | 3.5 | 0.00 | 0.00 | 0.00 | 69 | 1020.7 |
| 20260507023022 | 63 | 42 | 0.9 | 1.7 | 0.00 | 0.00 | 0.00 | 69 | 1020.6 |
| 20260507021524 | 64 | 106 | 0.9 | 6.1 | 0.00 | 0.00 | 0.00 | 66 | 1020.7 |
| 20260507020026 | 65 | 77 | 2.6 | 6.1 | 0.00 | 0.00 | 0.00 | 63 | 1020.6 |
| 20260507014523 | 66 | 107 | 0.9 | 7.8 | 0.00 | 0.00 | 0.00 | 64 | 1020.6 |
| 20260507013005 | 67 | 122 | 1.7 | 6.1 | 0.00 | 0.00 | 0.00 | 62 | 1020.6 |
| 20260507011505 | 67 | 119 | 1.7 | 7.0 | 0.00 | 0.00 | 0.00 | 62 | 1020.4 |
| 20260507010012 | 67 | 175 | 2.6 | 7.8 | 0.00 | 0.00 | 0.00 | 62 | 1020.4 |
| 20260507004518 | 68 | 135 | 2.6 | 6.1 | 0.00 | 0.00 | 0.00 | 61 | 1020.2 |
| 20260507003020 | 68 | 78 | 0.9 | 8.7 | 0.00 | 0.00 | 0.00 | 62 | 1020.3 |
| 20260507001504 | 69 | 122 | 2.6 | 7.8 | 0.00 | 0.00 | 0.00 | 60 | 1020.3 |
| 20260507000010 | 70 | 99 | 2.6 | 6.1 | 0.00 | 0.00 | 0.00 | 58 | 1020.2 |
| 20260506234515 | 71 | 49 | 0.9 | 5.2 | 0.00 | 0.00 | 0.00 | 58 | 1020.2 |
| 20260506233018 | 70 | 99 | 0.9 | 7.0 | 0.00 | 0.00 | 0.00 | 60 | 1020.2 |
| 20260506231528 | 71 | 89 | 0.9 | 4.3 | 0.00 | 0.00 | 0.00 | 58 | 1020.3 |
| 20260506230007 | 71 | 102 | 0.9 | 5.2 | 0.00 | 0.00 | 0.00 | 59 | 1020.4 |
| 20260506224512 | 71 | 99 | 2.6 | 7.8 | 0.00 | 0.00 | 0.00 | 57 | 1020.5 |
| 20260506223018 | 71 | 112 | 0.9 | 5.2 | 0.00 | 0.00 | 0.00 | 60 | 1020.7 |
| 20260506221522 | 70 | 130 | 2.6 | 7.0 | 0.00 | 0.00 | 0.00 | 58 | 1020.6 |
| 20260506220016 | 70 | 110 | 1.7 | 6.1 | 0.00 | 0.00 | 0.00 | 61 | 1020.6 |